Temperature
18 16 15 16 16 17 16 16 16 16 16 16 15 15 15 15 15 15 15 15 16 16 17 16 16 16 16 16 16 16 16 16 15 15 15 15 15 15 14 14 14 14 14 14
16 16 17 17 17 17 16 16 16 16 16 16 15 15 15 14 14 15 15 15 16 16 16 16 16 16 16 16 16 16 15 15 15 15 15 15 15 14 14 14 14 14 14 13
17 17 17 17 17 16 16 16 16 16 16 16 15 15 15 14 15 15 15 16 16 16 16 17 16 16 16 16 16 16 15 15 15 15 15 15 14 14 14 14 14 14 13 13
16 17 17 17 17 16 16 16 16 16 15 14 15 14 14 14 14 14 15 15 16 16 16 16 16 16 16 16 16 15 15 15 15 15 14 14 14 14 14 14 13 13 13 13
16 17 17 17 17 17 16 16 16 15 15 14 14 14 13 13 14 14 14 15 16 16 17 17 17 17 16 16 16 15 15 15 15 14 14 14 14 14 14 13 13 13 13 13
16 17 17 17 17 16 16 15 14 13 13 14 14 13 13 13 14 14 14 15 16 16 17 17 17 17 16 16 15 15 15 15 14 14 14 14 14 14 14 13 13 13 13 13
16 16 16 17 16 16 15 14 13 14 13 13 13 13 13 14 14 14 15 16 16 16 16 16 16 16 16 16 15 15 15 15 14 14 14 14 14 13 13 13 13 13 13 12
15 15 16 16 16 15 15 14 13 14 13 13 13 13 14 14 14 15 15 16 16 16 16 16 16 16 16 16 15 15 15 14 14 14 14 13 13 13 13 13 13 12 12 12
14 15 16 16 16 15 14 13 13 12 13 13 12 13 13 14 14 14 14 15 15 16 16 16 16 16 16 16 15 15 15 14 14 14 14 13 13 13 13 13 12 12 12 12
14 14 15 15 16 15 14 12 11 12 13 13 13 13 13 14 14 13 13 14 15 15 16 16 16 16 16 15 15 15 15 14 14 14 13 13 13 13 13 12 12 12 12 12
14 14 14 14 15 15 14 13 12 11 11 12 12 13 13 13 14 13 13 14 15 15 15 16 16 16 15 15 15 15 14 14 14 13 13 13 13 13 12 12 12 12 12 12
12 11 12 13 14 14 14 13 11 12 12 10 11 12 14 13 13 13 13 14 15 15 15 15 15 15 15 15 15 14 14 14 14 13 13 13 12 12 12 12 12 12 12 11
12 11 12 13 13 13 14 13 12 11 10 9 11 12 13 12 13 13 14 14 15 15 15 15 15 15 15 14 14 14 14 14 13 13 13 12 12 12 12 12 12 11 11 11
12 11 12 13 13 13 13 13 12 11 10 10 10 12 13 12 12 13 14 14 14 14 14 14 15 15 14 14 14 14 14 13 13 13 13 12 12 12 12 12 11 11 11 11
11 11 12 12 13 13 13 13 12 11 11 11 11 11 12 12 12 13 13 14 14 14 14 14 14 14 14 14 14 14 13 13 13 13 12 12 12 12 12 11 11 11 11 11
10 11 11 12 12 12 12 12 12 11 11 11 11 11 12 12 12 13 13 13 13 14 14 14 14 14 14 14 14 13 13 13 13 12 12 12 12 11 11 11 11 11 11 10
9 10 10 10 11 12 11 12 12 11 11 11 11 12 11 11 11 12 13 13 13 14 14 14 14 14 14 13 13 13 13 12 12 12 12 12 11 11 11 11 11 10 10 10
9 9 8 9 11 12 12 12 12 12 11 10 11 11 11 11 12 13 13 13 13 13 13 13 13 13 13 13 13 12 12 12 12 12 11 11 11 11 11 10 10 10 10 10
8 9 8 8 9 10 11 11 11 11 11 10 10 10 11 11 11 12 13 13 13 13 13 13 13 13 13 13 12 12 12 11 11 11 11 11 11 10 10 10 10 10 9 9
7 8 8 8 10 10 11 11 11 11 10 10 10 10 10 10 9 10 12 12 12 12 12 12 12 12 12 12 12 11 11 11 11 11 10 10 10 10 10 10 9 9 9 9
8 7 7 7 8 9 9 10 11 11 10 10 10 10 10 9 10 11 11 12 12 12 12 12 12 12 12 11 11 11 11 11 11 10 10 10 10 9 9 9 9 9 9 9
8 7 7 7 8 9 9 9 9 9 10 11 11 11 10 10 11 11 11 11 11 11 11 11 11 11 11 11 11 11 10 10 10 10 9 9 9 9 9 9 8 8 8 8
7 7 6 7 8 9 9 10 10 10 10 10 10 11 10 10 10 10 10 10 10 11 10 10 10 10 10 10 10 10 10 9 9 9 9 9 9 8 8 8 8 8 8 7
6 6 6 6 7 8 9 10 10 10 10 10 10 10 10 10 10 9 10 10 10 10 10 10 9 9 10 10 9 9 9 9 9 9 8 8 8 8 8 7 7 7 7 7
6 6 5 5 6 8 9 9 9 9 9 10 10 10 9 9 9 9 9 9 9 9 9 9 9 9 9 9 9 9 9 9 8 8 8 8 7 7 7 7 7 7 7 7
5 6 6 6 7 7 8 9 9 9 9 9 9 9 9 9 9 8 8 8 8 8 8 8 8 8 8 8 8 8 8 8 8 8 7 7 7 6 6 6 6 6 6 6
Wind_Speed
4 5 2 4 4 4 4 3 3 4 3 3 5 6 7 4 5 6 6 6 7 8 6 4 4 4 4 4 4 5 5 4 4 3 2 2 1 1 1 3 4 4 4 4
6 2 4 3 3 3 3 2 2 3 1 4 4 6 6 4 6 8 8 8 9 7 4 4 4 5 5 6 5 5 5 5 4 3 3 2 2 1 1 2 3 4 4 3
3 3 1 3 2 2 2 4 4 3 2 1 0 5 5 4 4 5 6 7 7 9 8 7 6 6 6 6 6 6 5 5 5 4 3 3 3 2 2 2 1 2 3 3
1 3 1 2 1 3 4 5 4 3 1 2 1 4 6 4 4 5 7 7 8 8 7 7 7 7 7 7 6 6 6 5 5 5 5 5 4 3 3 2 1 1 2 2
2 1 1 1 3 4 4 1 2 2 2 1 1 2 7 3 5 7 8 8 9 8 7 8 9 8 7 6 6 5 5 5 5 5 6 5 4 3 2 1 1 0 1 1
2 2 1 2 1 2 3 5 4 4 3 2 4 4 6 4 6 7 7 8 8 7 6 6 6 6 5 5 5 5 5 5 5 5 5 6 5 4 3 2 2 1 0 0
5 4 3 1 3 3 4 5 3 4 2 4 2 3 7 6 6 7 7 7 6 6 7 6 6 7 6 6 6 6 6 5 5 5 5 5 6 6 6 4 4 3 1 1
1 5 3 1 2 3 2 6 5 3 4 4 2 5 7 5 5 5 5 4 3 5 6 7 8 9 8 8 7 7 7 6 6 6 5 4 4 5 4 4 4 4 3 3
3 4 4 2 0 5 3 2 4 5 1 2 5 6 8 3 5 4 3 2 3 4 6 7 6 7 8 8 8 8 8 6 6 6 5 5 5 4 4 4 4 3 3 2
4 3 4 3 3 4 4 6 4 4 2 3 5 5 4 6 6 6 5 5 5 4 4 5 5 6 7 8 7 7 7 7 6 6 6 5 5 5 4 4 4 4 3 3
3 2 4 3 1 2 3 3 4 3 3 4 3 6 4 6 6 6 7 6 6 5 5 5 5 5 5 5 5 6 6 5 5 6 5 5 5 4 4 4 4 4 3 4
2 4 2 5 3 1 3 5 5 4 3 4 3 7 5 5 6 6 6 5 5 4 3 3 4 3 4 5 5 6 6 6 6 6 5 5 5 4 4 4 4 4 3 3
3 4 1 6 5 3 1 2 3 4 4 4 4 7 4 4 6 5 6 6 4 3 2 2 3 3 4 5 5 6 6 6 5 5 5 5 4 5 5 5 4 4 4 3
3 3 5 7 6 4 3 3 3 4 4 5 7 9 10 9 9 8 6 5 3 3 2 2 3 4 4 4 5 5 5 5 5 5 5 5 5 5 5 4 4 4 4 4
3 3 5 7 6 4 5 6 4 6 7 7 8 8 11 9 8 7 5 4 3 3 3 3 4 4 3 3 3 4 5 4 5 6 6 6 5 4 4 4 4 3 3 3
2 2 1 4 4 4 6 8 7 6 6 7 7 8 8 6 4 4 4 3 3 4 5 4 4 4 4 4 4 4 4 5 5 6 6 5 4 4 4 4 4 3 3 3
1 3 1 4 5 3 6 7 7 5 5 6 7 8 6 4 5 5 4 4 4 5 5 5 4 5 5 5 5 5 5 4 5 5 5 5 4 4 4 4 4 4 3 3
4 3 2 2 2 6 7 2 4 5 5 5 5 6 5 6 5 4 3 3 5 5 5 4 4 4 4 4 4 4 4 5 5 5 4 4 4 4 4 4 4 3 3 3
4 5 3 2 3 7 6 3 2 4 5 3 5 6 5 4 4 4 4 3 4 5 5 4 4 3 3 3 3 4 4 4 5 5 5 5 5 5 5 4 4 3 3 3
3 3 4 3 3 6 6 5 3 1 4 4 3 4 3 2 2 6 7 5 5 4 3 2 2 1 1 1 3 4 4 4 5 6 5 5 5 6 6 5 4 2 3 3
1 1 3 5 6 7 5 5 1 2 5 5 3 3 2 2 4 5 6 5 4 3 3 2 1 1 1 1 3 3 3 4 4 4 4 4 4 5 5 4 3 3 3 2
5 4 4 4 4 7 3 1 2 5 4 3 3 3 3 4 4 5 5 5 5 4 3 2 0 1 1 2 4 3 3 3 2 3 3 4 4 4 3 4 3 3 3 3
5 6 5 6 6 4 2 3 3 2 3 4 4 4 2 3 4 5 4 5 5 4 4 2 1 1 1 1 3 4 3 2 3 3 3 3 3 3 3 4 4 3 3 3
3 1 2 4 6 5 5 4 4 3 3 4 4 4 2 3 4 5 4 4 4 4 4 2 1 1 1 1 2 3 2 3 3 3 3 3 3 3 2 3 4 4 4 3
4 3 2 5 7 6 5 4 5 5 4 4 4 3 3 3 4 4 4 4 4 4 3 2 1 1 2 2 1 1 2 4 4 3 3 3 3 3 3 2 2 4 4 5
4 5 5 7 6 4 7 6 5 5 5 4 4 4 4 3 4 4 4 4 3 3 3 2 2 2 2 2 2 1 1 3 4 3 2 2 2 2 2 2 1 0 1 3
Wind_Direction
43 73 132 211 191 171 163 176 234 257 229 171 222 252 265 225 219 232 233 225 221 226 225 204 193 180 162 159 160 162 155 153 138 128 125 118 112 66 46 38 42 50 58 67
44 355 243 185 148 126 142 174 257 287 224 188 233 264 269 227 221 226 226 226 224 229 217 206 197 185 179 179 177 171 172 166 161 160 156 145 141 140 123 38 36 45 57 61
152 257 196 128 126 144 208 202 222 243 356 35 323 302 280 263 237 242 239 231 224 218 215 211 202 195 187 185 183 182 182 175 170 153 126 103 81 59 50 42 25 13 47 55
235 283 96 117 194 163 240 225 207 199 116 275 190 281 285 272 277 253 246 241 234 228 217 211 202 197 195 195 185 178 178 175 169 155 151 148 155 173 201 197 194 14 49 62
284 298 99 189 243 186 213 109 139 156 153 312 303 227 286 304 276 263 247 239 235 227 213 208 203 199 195 186 180 180 172 169 165 166 167 163 168 182 166 143 146 138 36 45
274 295 192 217 319 130 118 64 54 53 74 291 252 205 281 252 244 264 251 239 238 228 216 209 203 190 187 176 172 171 173 178 170 170 172 174 178 171 152 161 177 197 232 330
341 334 333 88 64 30 73 79 28 360 4 260 260 218 255 255 246 242 248 244 245 226 211 204 194 189 188 184 181 178 178 187 181 176 184 190 188 179 181 186 189 186 191 216
350 301 307 343 165 178 160 139 159 210 234 282 294 242 259 272 284 265 254 251 256 232 210 208 204 195 191 189 185 181 185 192 187 185 195 195 189 184 195 194 189 193 202 208
182 263 309 318 151 131 125 149 161 142 170 279 282 288 302 316 342 344 332 324 284 258 218 212 207 200 193 189 190 188 189 193 195 195 193 190 192 191 194 195 188 193 200 194
161 247 303 315 61 37 123 140 99 125 172 264 291 284 278 307 311 319 315 298 288 279 234 211 205 203 196 192 190 186 188 195 199 197 195 195 200 200 192 184 191 194 192 181
137 173 310 5 136 195 89 100 111 125 156 172 268 276 241 253 280 291 287 285 281 268 246 218 208 205 194 185 177 182 191 193 194 196 198 196 198 194 182 188 200 195 184 179
122 129 259 268 270 221 173 166 148 161 222 190 208 267 276 270 283 279 282 291 296 275 253 224 203 196 187 185 185 189 195 198 200 194 193 200 196 183 183 196 202 190 184 187
123 112 11 335 342 356 162 163 160 142 140 175 199 265 295 325 314 301 291 295 301 290 263 238 196 197 199 196 195 195 200 203 195 186 189 193 190 187 194 199 197 189 185 185
114 139 180 214 234 234 255 237 177 148 175 215 226 257 294 309 304 303 297 292 294 296 266 234 216 214 213 208 204 201 205 198 187 184 186 194 199 197 197 194 189 188 182 181
105 183 228 244 249 232 238 248 214 203 205 211 243 248 271 281 278 285 288 296 314 308 286 247 230 227 220 213 214 206 200 193 185 184 191 203 202 190 182 182 183 179 179 179
88 173 227 278 275 250 259 260 240 234 233 235 257 267 268 278 289 297 287 282 287 282 273 257 240 232 228 220 216 210 204 194 183 186 196 196 187 182 181 181 173 164 161 155
145 146 158 268 302 324 273 245 220 224 226 206 232 254 282 297 293 281 281 279 270 273 275 257 243 232 231 224 211 208 207 188 182 189 192 187 182 184 183 175 162 165 168 159
162 151 162 249 350 250 249 264 211 222 244 230 245 274 279 267 276 276 270 271 283 287 279 271 258 246 239 218 206 195 181 176 182 186 188 183 177 176 170 165 170 172 168 170
173 157 150 159 242 273 292 293 225 220 265 256 255 283 297 317 343 320 307 289 273 277 271 261 256 243 228 214 196 172 173 177 182 190 193 190 181 175 172 175 181 179 167 172
88 118 141 162 211 243 259 296 306 175 272 307 283 289 303 32 357 298 314 317 310 308 306 293 286 284 230 220 163 161 176 182 197 199 197 192 184 181 182 186 186 177 170 177
94 111 177 199 227 255 273 300 14 171 265 310 296 291 277 229 243 284 317 327 324 320 319 324 308 252 243 175 143 159 180 210 215 193 177 176 180 182 179 174 171 165 159 148
186 184 197 176 213 255 288 83 166 236 282 303 299 293 269 275 300 316 325 324 326 328 331 328 327 308 313 153 153 170 210 223 179 159 165 172 175 179 167 159 161 157 153 148
203 197 197 197 219 251 241 215 255 265 291 297 301 299 290 302 305 314 318 315 315 318 322 332 337 338 356 173 166 186 218 179 153 152 163 167 164 167 167 166 164 160 165 167
271 183 184 255 266 272 275 279 297 299 283 293 298 300 304 296 295 302 309 313 317 319 320 338 14 350 316 258 202 200 186 163 156 162 170 168 161 161 162 169 168 171 180 185
240 189 226 262 283 307 295 289 291 299 305 313 322 314 293 292 298 295 299 304 306 311 319 330 306 274 292 294 254 213 174 163 163 167 171 172 174 171 168 171 185 190 204 200
212 196 204 240 243 239 272 286 294 294 296 296 310 319 315 297 286 293 297 302 302 303 306 304 310 301 306 308 303 288 184 165 160 161 171 177 175 171 167 160 110 326 210 201
Height
1506 1512 1518 1517 1516 1518 1520 1524 1527 1523 1519 1522 1524 1522 1519 1518 1519 1518 1518 1518 1519 1520 1522 1523 1524 1525 1526 1528 1529 1530 1532 1533 1533 1534 1534 1535 1535 1536 1536 1536 1536 1535 1535 1534
1513 1517 1513 1512 1514 1516 1520 1525 1526 1522 1519 1521 1523 1522 1517 1516 1516 1515 1515 1515 1516 1517 1519 1520 1522 1523 1524 1525 1527 1529 1530 1531 1532 1533 1534 1534 1535 1535 1535 1536 1535 1535 1535 1535
1515 1514 1510 1512 1515 1518 1520 1523 1523 1523 1521 1521 1523 1524 1518 1514 1513 1513 1513 1513 1513 1514 1516 1517 1519 1520 1522 1523 1525 1527 1529 1530 1531 1532 1533 1534 1534 1534 1535 1535 1535 1535 1535 1534
1514 1511 1511 1513 1515 1517 1522 1516 1518 1520 1527 1530 1527 1535 1520 1514 1513 1511 1510 1510 1510 1511 1512 1514 1515 1517 1519 1521 1523 1525 1527 1528 1529 1530 1531 1532 1532 1532 1533 1534 1534 1534 1534 1534
1514 1511 1511 1514 1513 1513 1516 1514 1517 1520 1526 1531 1529 1534 1525 1515 1513 1509 1506 1506 1506 1507 1509 1510 1512 1514 1516 1519 1521 1523 1525 1526 1527 1528 1529 1530 1531 1531 1532 1533 1533 1533 1533 1533
1512 1510 1510 1510 1510 1511 1513 1517 1521 1526 1531 1537 1531 1534 1528 1518 1510 1505 1502 1502 1503 1504 1506 1507 1509 1511 1514 1516 1518 1520 1522 1524 1525 1526 1527 1528 1529 1530 1530 1531 1531 1531 1531 1531
1516 1512 1510 1509 1512 1513 1516 1527 1538 1538 1543 1540 1530 1531 1524 1508 1504 1502 1500 1499 1500 1501 1502 1504 1506 1508 1511 1513 1515 1517 1519 1521 1522 1523 1524 1525 1526 1527 1528 1529 1529 1529 1529 1529
1525 1524 1512 1510 1512 1516 1518 1524 1539 1543 1544 1539 1530 1530 1515 1503 1501 1499 1498 1498 1498 1498 1499 1501 1503 1505 1507 1510 1512 1514 1516 1518 1519 1520 1522 1523 1524 1524 1525 1526 1527 1527 1528 1528
1525 1523 1512 1509 1509 1512 1519 1524 1525 1536 1538 1541 1534 1525 1511 1501 1499 1498 1497 1496 1496 1496 1497 1498 1500 1502 1504 1506 1509 1511 1513 1514 1516 1517 1519 1520 1521 1521 1522 1524 1525 1525 1526 1526
1518 1523 1515 1511 1510 1512 1514 1521 1530 1536 1541 1543 1535 1528 1519 1506 1501 1499 1497 1496 1495 1495 1495 1496 1498 1500 1502 1504 1506 1508 1510 1511 1513 1514 1515 1517 1518 1519 1520 1521 1522 1522 1523 1524
1516 1523 1520 1516 1515 1517 1519 1522 1527 1535 1536 1542 1541 1530 1508 1504 1500 1499 1497 1495 1495 1494 1493 1494 1495 1497 1499 1501 1503 1505 1506 1508 1509 1511 1512 1514 1515 1516 1517 1518 1519 1520 1520 1521
1517 1524 1527 1520 1513 1512 1514 1518 1525 1532 1535 1538 1539 1529 1501 1500 1498 1497 1495 1494 1494 1493 1493 1493 1494 1495 1497 1498 1500 1502 1503 1505 1506 1508 1509 1510 1511 1512 1513 1515 1516 1517 1517 1518
1517 1525 1531 1526 1523 1517 1516 1517 1519 1524 1532 1538 1537 1524 1500 1499 1497 1495 1494 1493 1492 1492 1491 1492 1492 1493 1494 1496 1497 1499 1500 1501 1503 1504 1506 1507 1508 1509 1510 1511 1512 1513 1514 1515
1514 1523 1528 1529 1524 1518 1517 1516 1518 1522 1530 1532 1527 1516 1504 1500 1497 1494 1492 1491 1490 1490 1490 1490 1490 1491 1492 1494 1495 1496 1497 1498 1500 1501 1503 1504 1505 1506 1507 1508 1509 1510 1511 1511
1514 1521 1520 1518 1515 1515 1515 1514 1515 1517 1518 1521 1515 1512 1503 1498 1496 1493 1491 1489 1489 1488 1488 1488 1488 1489 1490 1491 1492 1493 1494 1495 1497 1498 1499 1500 1502 1503 1504 1505 1506 1507 1507 1508
1516 1519 1519 1517 1513 1513 1513 1510 1510 1512 1512 1512 1509 1506 1497 1495 1493 1491 1489 1488 1487 1486 1486 1486 1486 1487 1487 1488 1489 1490 1491 1492 1493 1495 1496 1497 1499 1500 1501 1502 1503 1503 1504 1505
1518 1519 1522 1523 1517 1514 1515 1506 1505 1506 1504 1505 1506 1500 1494 1493 1491 1489 1487 1487 1486 1485 1484 1484 1484 1484 1484 1485 1486 1487 1488 1489 1490 1492 1493 1494 1495 1496 1497 1498 1499 1499 1500 1501
1517 1519 1524 1524 1520 1520 1509 1499 1499 1500 1499 1499 1497 1494 1492 1490 1488 1487 1486 1485 1484 1483 1483 1482 1482 1482 1482 1483 1483 1484 1485 1486 1487 1488 1489 1490 1492 1493 1494 1494 1495 1496 1497 1497
1511 1516 1523 1526 1523 1516 1505 1499 1499 1500 1498 1495 1494 1491 1489 1487 1486 1485 1484 1483 1483 1482 1481 1480 1480 1480 1479 1480 1480 1481 1482 1483 1484 1485 1486 1487 1488 1489 1490 1491 1491 1492 1493 1493
1512 1513 1521 1524 1521 1518 1505 1497 1495 1497 1499 1492 1491 1489 1488 1487 1490 1486 1483 1481 1480 1480 1479 1478 1477 1477 1477 1477 1477 1478 1479 1480 1481 1482 1483 1484 1485 1486 1487 1487 1488 1489 1490 1490
1515 1518 1520 1522 1520 1512 1502 1497 1495 1503 1500 1492 1490 1488 1488 1487 1487 1485 1482 1480 1479 1478 1477 1476 1475 1475 1475 1475 1475 1475 1476 1477 1478 1479 1480 1481 1482 1483 1484 1484 1485 1486 1486 1487
1513 1516 1518 1520 1519 1512 1498 1496 1499 1498 1493 1491 1489 1487 1487 1485 1484 1482 1481 1479 1478 1476 1475 1474 1474 1473 1473 1473 1473 1473 1474 1474 1475 1476 1477 1478 1479 1480 1480 1481 1482 1483 1483 1483
1510 1509 1510 1510 1507 1498 1496 1495 1494 1493 1491 1489 1488 1486 1485 1484 1482 1481 1479 1477 1476 1475 1473 1473 1472 1471 1471 1471 1471 1471 1471 1472 1472 1473 1474 1475 1476 1476 1477 1478 1478 1479 1480 1480
1506 1504 1505 1505 1499 1495 1494 1493 1492 1491 1490 1488 1487 1485 1483 1482 1481 1479 1477 1476 1474 1473 1472 1471 1470 1469 1468 1469 1469 1469 1469 1469 1469 1470 1471 1472 1473 1473 1474 1475 1475 1476 1476 1477
1503 1503 1504 1502 1497 1494 1491 1491 1490 1489 1487 1486 1484 1483 1482 1480 1479 1478 1476 1474 1472 1471 1469 1468 1467 1467 1466 1466 1466 1466 1466 1466 1466 1467 1468 1468 1469 1470 1471 1471 1472 1473 1473 1474
1498 1499 1500 1497 1493 1493 1490 1488 1487 1486 1485 1484 1482 1481 1480 1479 1477 1475 1473 1471 1470 1468 1467 1466 1465 1464 1464 1464 1463 1464 1464 1464 1464 1464 1464 1465 1465 1466 1467 1468 1469 1469 1470 1470